TimeCST,TemperatureF,Dew PointF,Humidity,Sea Level PressureIn,VisibilityMPH,Wind Direction,Wind SpeedMPH,Gust SpeedMPH,PrecipitationIn,Events,Conditions,WindDirDegrees,DateUTC
12:53 AM,37.0,19.0,48,29.90,10.0,South,11.5,18.4,N/A,,Overcast,190,2012-12-06 06:53:00
1:53 AM,39.0,19.9,46,29.88,10.0,SSW,13.8,23.0,N/A,,Overcast,210,2012-12-06 07:53:00
2:53 AM,39.9,21.0,47,29.86,10.0,SSW,12.7,21.9,N/A,,Overcast,200,2012-12-06 08:53:00
3:53 AM,39.0,21.9,50,29.83,10.0,SSW,15.0,20.7,N/A,,Overcast,200,2012-12-06 09:53:00
4:53 AM,39.9,24.1,53,29.82,10.0,SSW,15.0,25.3,N/A,,Overcast,200,2012-12-06 10:53:00
5:53 AM,39.0,27.0,62,29.79,10.0,SSW,16.1,26.5,N/A,,Overcast,200,2012-12-06 11:53:00
6:53 AM,37.0,30.0,76,29.76,10.0,SSW,16.1,24.2,0.00,,Mostly Cloudy,200,2012-12-06 12:53:00
7:53 AM,37.0,30.9,79,29.76,10.0,SSW,15.0,23.0,N/A,,Scattered Clouds,210,2012-12-06 13:53:00
8:53 AM,39.0,32.0,76,29.76,10.0,SSW,12.7,21.9,N/A,,Clear,210,2012-12-06 14:53:00
9:53 AM,41.0,33.1,73,29.75,10.0,SSW,18.4,25.3,N/A,,Overcast,210,2012-12-06 15:53:00
10:53 AM,44.1,35.1,71,29.74,10.0,SW,9.2,-,N/A,,Overcast,220,2012-12-06 16:53:00
11:53 AM,44.1,34.0,68,29.73,10.0,WSW,13.8,21.9,N/A,,Overcast,250,2012-12-06 17:53:00
12:53 PM,43.0,32.0,65,29.74,10.0,WNW,17.3,24.2,N/A,,Overcast,300,2012-12-06 18:53:00
1:34 PM,42.8,28.4,57,29.72,10.0,West,16.1,25.3,N/A,,Scattered Clouds,260,2012-12-06 19:34:00
1:53 PM,42.1,28.9,60,29.75,10.0,WSW,11.5,19.6,N/A,,Mostly Cloudy,250,2012-12-06 19:53:00
2:53 PM,41.0,28.0,60,29.78,10.0,WNW,12.7,18.4,N/A,,Overcast,290,2012-12-06 20:53:00
3:53 PM,37.9,27.0,65,29.81,10.0,West,10.4,17.3,N/A,,Mostly Cloudy,280,2012-12-06 21:53:00
4:51 PM,37.4,26.6,65,29.81,10.0,West,17.3,24.2,N/A,,Overcast,280,2012-12-06 22:51:00
4:53 PM,37.0,27.0,67,29.84,10.0,West,12.7,24.2,N/A,,Overcast,270,2012-12-06 22:53:00
5:53 PM,35.1,26.1,70,29.86,10.0,WNW,16.1,24.2,N/A,,Overcast,290,2012-12-06 23:53:00
6:53 PM,32.0,24.1,73,29.90,10.0,West,9.2,-,N/A,,Overcast,280,2012-12-07 00:53:00
7:53 PM,30.9,23.0,72,29.91,10.0,West,9.2,-,N/A,,Overcast,260,2012-12-07 01:53:00
8:17 PM,30.2,21.2,69,29.89,10.0,West,10.4,23.0,N/A,,Scattered Clouds,280,2012-12-07 02:17:00
8:53 PM,28.9,21.0,72,29.94,10.0,West,10.4,-,N/A,,Clear,280,2012-12-07 02:53:00
9:53 PM,28.0,19.9,72,29.94,10.0,West,6.9,-,N/A,,Clear,260,2012-12-07 03:53:00
10:53 PM,26.1,19.9,78,29.96,10.0,West,6.9,-,N/A,,Partly Cloudy,260,2012-12-07 04:53:00
11:15 PM,26.6,19.4,74,29.93,10.0,West,6.9,-,N/A,,Mostly Cloudy,260,2012-12-07 05:15:00
11:53 PM,27.0,19.9,75,29.96,10.0,West,9.2,-,N/A,,Overcast,270,2012-12-07 05:53:00